Precipitable_Water
1.31 1.29 1.27 1.27 1.25 1.23 1.23 1.23 1.25 1.27 1.27 1.27 1.27 1.29 1.29 1.29 1.27 1.27 1.29 1.29 1.29 1.29 1.31 1.31 1.33 1.33 1.35 1.37 1.39 1.39 1.41 1.43 1.41 1.43 1.43 1.43 1.43 1.41 1.41 1.41 1.43 1.47 1.49 1.49 1.47 1.47 1.47 1.51 1.51 1.49 1.45 1.45 1.43 1.41 1.39 1.39 1.37 1.35 1.35 1.35 1.35 1.31 1.27 1.21 1.15 1.09 1.03 0.99 0.97
1.29 1.31 1.29 1.29 1.27 1.25 1.25 1.23 1.23 1.25 1.27 1.27 1.29 1.29 1.29 1.31 1.29 1.29 1.29 1.31 1.31 1.31 1.31 1.33 1.33 1.35 1.35 1.35 1.37 1.37 1.37 1.35 1.37 1.37 1.39 1.41 1.41 1.41 1.41 1.41 1.41 1.45 1.49 1.51 1.51 1.49 1.49 1.49 1.45 1.43 1.41 1.39 1.39 1.37 1.35 1.37 1.35 1.33 1.33 1.33 1.33 1.29 1.25 1.19 1.13 1.09 1.07 1.05 1.03
1.27 1.29 1.29 1.29 1.27 1.25 1.25 1.23 1.23 1.23 1.25 1.27 1.27 1.29 1.29 1.29 1.29 1.29 1.31 1.31 1.33 1.33 1.35 1.33 1.35 1.35 1.35 1.35 1.35 1.35 1.35 1.33 1.33 1.33 1.35 1.37 1.39 1.39 1.39 1.39 1.41 1.43 1.47 1.49 1.51 1.51 1.49 1.49 1.41 1.37 1.33 1.33 1.33 1.31 1.33 1.35 1.35 1.35 1.33 1.33 1.35 1.29 1.23 1.17 1.13 1.13 1.11 1.11 1.09
1.23 1.23 1.25 1.25 1.25 1.23 1.23 1.23 1.23 1.23 1.25 1.25 1.27 1.27 1.27 1.27 1.27 1.27 1.27 1.29 1.31 1.31 1.31 1.33 1.33 1.33 1.35 1.35 1.33 1.33 1.33 1.33 1.33 1.31 1.31 1.33 1.35 1.39 1.39 1.41 1.41 1.41 1.43 1.47 1.49 1.49 1.45 1.41 1.39 1.35 1.31 1.29 1.27 1.29 1.29 1.31 1.33 1.35 1.35 1.35 1.35 1.31 1.25 1.15 1.13 1.13 1.13 1.11 1.07
1.11 1.13 1.15 1.19 1.19 1.19 1.21 1.21 1.19 1.19 1.21 1.21 1.21 1.21 1.21 1.21 1.21 1.21 1.21 1.21 1.23 1.23 1.25 1.29 1.31 1.31 1.33 1.31 1.31 1.31 1.31 1.31 1.31 1.31 1.31 1.31 1.35 1.39 1.41 1.41 1.41 1.41 1.41 1.43 1.41 1.41 1.39 1.35 1.35 1.33 1.29 1.29 1.27 1.27 1.27 1.27 1.31 1.33 1.33 1.27 1.23 1.19 1.15 1.11 1.09 1.09 1.09 1.07 1.03
0.97 0.99 1.01 1.03 1.05 1.07 1.09 1.11 1.11 1.11 1.11 1.11 1.11 1.11 1.11 1.13 1.13 1.15 1.13 1.13 1.15 1.17 1.21 1.25 1.25 1.25 1.23 1.25 1.27 1.29 1.29 1.29 1.29 1.29 1.29 1.29 1.35 1.37 1.39 1.39 1.39 1.39 1.39 1.39 1.39 1.35 1.33 1.33 1.31 1.29 1.29 1.27 1.27 1.27 1.27 1.27 1.27 1.29 1.25 1.15 1.13 1.11 1.07 1.05 1.03 1.03 1.03 1.01 0.99
0.90 0.90 0.92 0.93 0.93 0.95 0.95 0.97 0.97 0.99 1.01 1.03 1.03 1.03 1.05 1.05 1.07 1.09 1.09 1.09 1.11 1.13 1.15 1.17 1.15 1.15 1.17 1.19 1.21 1.23 1.25 1.25 1.27 1.27 1.29 1.29 1.29 1.33 1.37 1.39 1.39 1.39 1.39 1.39 1.35 1.33 1.31 1.29 1.29 1.27 1.27 1.25 1.25 1.27 1.27 1.29 1.27 1.25 1.17 1.11 1.11 1.09 1.07 1.05 1.05 1.03 0.99 0.99 0.97
0.82 0.84 0.84 0.84 0.86 0.86 0.88 0.88 0.90 0.92 0.93 0.93 0.95 0.95 0.97 0.99 1.03 1.05 1.05 1.07 1.07 1.05 1.05 1.05 1.09 1.11 1.13 1.15 1.17 1.19 1.21 1.23 1.23 1.25 1.25 1.27 1.27 1.29 1.31 1.33 1.35 1.35 1.37 1.37 1.33 1.31 1.29 1.29 1.29 1.27 1.27 1.27 1.25 1.27 1.27 1.27 1.25 1.21 1.13 1.07 1.07 1.07 1.05 1.05 1.03 1.03 1.01 0.97 0.97
0.74 0.74 0.74 0.78 0.78 0.78 0.78 0.80 0.82 0.82 0.84 0.84 0.86 0.88 0.88 0.92 0.93 0.95 0.97 0.99 0.97 0.99 1.01 1.01 1.05 1.09 1.09 1.11 1.13 1.15 1.17 1.21 1.21 1.23 1.23 1.25 1.25 1.25 1.25 1.27 1.27 1.29 1.29 1.31 1.29 1.27 1.29 1.29 1.31 1.31 1.29 1.29 1.27 1.25 1.25 1.25 1.21 1.15 1.11 1.09 1.05 1.03 1.03 1.03 1.03 1.01 1.01 0.99 0.97
0.70 0.72 0.72 0.70 0.72 0.72 0.72 0.74 0.74 0.76 0.76 0.76 0.78 0.80 0.82 0.82 0.82 0.84 0.86 0.90 0.92 0.93 0.95 0.97 1.01 1.03 1.05 1.07 1.09 1.11 1.15 1.17 1.19 1.19 1.21 1.21 1.21 1.21 1.21 1.23 1.23 1.23 1.25 1.25 1.25 1.25 1.25 1.27 1.27 1.29 1.29 1.29 1.27 1.25 1.23 1.21 1.15 1.13 1.09 1.07 1.05 1.03 1.01 1.01 1.01 1.01 0.99 0.97 0.97
0.68 0.70 0.70 0.70 0.70 0.70 0.70 0.70 0.70 0.70 0.70 0.70 0.70 0.72 0.72 0.74 0.76 0.80 0.82 0.86 0.86 0.88 0.88 0.92 0.95 0.97 1.01 1.03 1.05 1.09 1.11 1.13 1.15 1.17 1.17 1.19 1.19 1.19 1.19 1.19 1.19 1.21 1.21 1.19 1.21 1.21 1.21 1.21 1.21 1.23 1.25 1.27 1.27 1.25 1.23 1.19 1.17 1.13 1.09 1.07 1.05 1.03 1.01 1.01 1.01 0.99 0.99 0.99 0.99
0.66 0.68 0.68 0.68 0.70 0.70 0.68 0.68 0.68 0.68 0.68 0.68 0.68 0.68 0.70 0.70 0.72 0.74 0.76 0.78 0.78 0.80 0.84 0.86 0.90 0.93 0.95 0.97 1.01 1.03 1.07 1.09 1.13 1.13 1.15 1.15 1.15 1.17 1.17 1.17 1.17 1.17 1.17 1.15 1.17 1.19 1.19 1.19 1.19 1.19 1.19 1.21 1.23 1.23 1.21 1.19 1.15 1.13 1.09 1.07 1.05 1.03 1.01 1.01 1.01 0.99 0.99 0.99 0.99
0.64 0.64 0.64 0.66 0.66 0.66 0.66 0.66 0.66 0.66 0.66 0.66 0.66 0.66 0.68 0.68 0.68 0.70 0.72 0.72 0.72 0.74 0.76 0.80 0.84 0.88 0.90 0.92 0.95 0.97 0.99 1.03 1.05 1.07 1.09 1.09 1.11 1.11 1.13 1.13 1.15 1.13 1.11 1.11 1.13 1.13 1.15 1.15 1.15 1.15 1.15 1.17 1.17 1.19 1.17 1.15 1.13 1.09 1.07 1.05 1.03 1.01 1.01 0.99 1.01 0.99 0.99 0.99 0.99
0.62 0.62 0.62 0.62 0.62 0.62 0.62 0.62 0.62 0.64 0.64 0.64 0.64 0.66 0.66 0.66 0.66 0.68 0.68 0.68 0.68 0.70 0.72 0.74 0.76 0.80 0.84 0.86 0.88 0.90 0.93 0.95 0.97 0.99 1.01 1.03 1.05 1.05 1.05 1.07 1.07 1.07 1.07 1.09 1.09 1.09 1.09 1.09 1.11 1.13 1.13 1.13 1.13 1.15 1.13 1.11 1.11 1.09 1.05 1.03 1.01 1.01 0.99 0.99 0.99 0.97 0.97 0.97 0.97
0.60 0.60 0.60 0.58 0.58 0.58 0.58 0.58 0.60 0.60 0.62 0.62 0.62 0.64 0.64 0.64 0.64 0.64 0.66 0.64 0.66 0.66 0.68 0.68 0.70 0.74 0.78 0.80 0.82 0.84 0.86 0.88 0.90 0.93 0.95 0.97 0.97 0.99 0.99 0.99 0.99 1.01 1.03 1.05 1.05 1.05 1.05 1.05 1.07 1.07 1.09 1.09 1.11 1.09 1.09 1.07 1.07 1.07 1.05 1.03 1.03 1.01 0.99 0.97 0.97 0.97 0.97 0.97 0.97
0.58 0.58 0.58 0.58 0.56 0.56 0.56 0.56 0.56 0.58 0.58 0.60 0.60 0.62 0.62 0.62 0.62 0.64 0.64 0.62 0.64 0.64 0.64 0.66 0.66 0.70 0.72 0.74 0.76 0.80 0.80 0.82 0.84 0.86 0.88 0.90 0.92 0.93 0.93 0.92 0.93 0.95 0.99 1.01 1.01 1.03 1.03 1.03 1.03 1.03 1.05 1.05 1.05 1.03 1.01 1.01 1.01 1.01 1.01 1.01 1.01 0.99 0.99 0.97 0.97 0.97 0.97 0.97 0.97
0.58 0.58 0.58 0.56 0.56 0.56 0.56 0.56 0.56 0.56 0.56 0.56 0.58 0.58 0.60 0.60 0.62 0.62 0.62 0.62 0.62 0.62 0.62 0.62 0.64 0.66 0.68 0.70 0.72 0.74 0.76 0.78 0.80 0.80 0.82 0.86 0.88 0.88 0.88 0.88 0.90 0.92 0.93 0.95 0.97 0.97 0.99 0.99 1.01 1.01 1.01 1.01 1.01 0.97 0.95 0.95 0.95 0.95 0.95 0.95 0.95 0.95 0.95 0.95 0.95 0.95 0.95 0.93 0.92
0.56 0.56 0.56 0.56 0.56 0.56 0.56 0.56 0.56 0.56 0.56 0.56 0.56 0.58 0.58 0.60 0.60 0.60 0.62 0.62 0.62 0.62 0.62 0.62 0.64 0.64 0.64 0.66 0.68 0.70 0.72 0.74 0.76 0.76 0.78 0.82 0.84 0.82 0.82 0.84 0.86 0.88 0.90 0.92 0.92 0.93 0.93 0.95 0.95 0.97 0.97 0.97 0.95 0.93 0.92 0.92 0.92 0.92 0.92 0.92 0.92 0.92 0.93 0.95 0.93 0.92 0.92 0.90 0.88
0.56 0.56 0.56 0.56 0.56 0.56 0.56 0.56 0.56 0.56 0.56 0.58 0.58 0.58 0.58 0.58 0.60 0.60 0.60 0.62 0.62 0.62 0.62 0.62 0.62 0.64 0.64 0.66 0.66 0.68 0.70 0.70 0.72 0.74 0.76 0.78 0.80 0.80 0.80 0.82 0.82 0.84 0.86 0.86 0.88 0.90 0.90 0.92 0.92 0.92 0.92 0.92 0.90 0.88 0.88 0.88 0.88 0.88 0.88 0.88 0.88 0.90 0.90 0.92 0.90 0.88 0.88 0.86 0.84
0.56 0.56 0.56 0.56 0.56 0.56 0.56 0.56 0.56 0.56 0.58 0.58 0.58 0.58 0.58 0.58 0.60 0.60 0.60 0.60 0.62 0.62 0.62 0.62 0.64 0.64 0.64 0.66 0.66 0.68 0.68 0.70 0.70 0.72 0.74 0.74 0.76 0.76 0.78 0.78 0.80 0.80 0.82 0.82 0.84 0.84 0.86 0.88 0.88 0.88 0.88 0.88 0.86 0.86 0.86 0.86 0.86 0.86 0.86 0.86 0.88 0.88 0.88 0.86 0.86 0.86 0.84 0.82 0.80
0.56 0.56 0.56 0.56 0.56 0.56 0.56 0.56 0.56 0.56 0.56 0.56 0.58 0.58 0.58 0.58 0.58 0.58 0.60 0.60 0.62 0.62 0.62 0.62 0.62 0.64 0.64 0.64 0.66 0.68 0.68 0.70 0.70 0.72 0.72 0.72 0.74 0.74 0.76 0.76 0.78 0.78 0.78 0.80 0.80 0.82 0.82 0.84 0.84 0.84 0.84 0.82 0.82 0.82 0.82 0.84 0.84 0.84 0.84 0.86 0.86 0.86 0.86 0.84 0.82 0.82 0.80 0.78 0.78
0.56 0.56 0.56 0.56 0.56 0.54 0.54 0.54 0.54 0.54 0.56 0.56 0.56 0.56 0.56 0.58 0.58 0.58 0.60 0.60 0.62 0.62 0.62 0.62 0.62 0.64 0.64 0.64 0.66 0.68 0.70 0.70 0.72 0.72 0.72 0.72 0.72 0.74 0.74 0.76 0.74 0.76 0.76 0.76 0.76 0.78 0.78 0.80 0.80 0.80 0.80 0.78 0.78 0.80 0.80 0.80 0.82 0.82 0.82 0.82 0.82 0.84 0.82 0.80 0.78 0.78 0.76 0.76 0.74
0.54 0.54 0.54 0.54 0.54 0.54 0.54 0.54 0.54 0.54 0.54 0.54 0.54 0.54 0.54 0.56 0.56 0.58 0.58 0.60 0.60 0.60 0.60 0.62 0.62 0.64 0.64 0.66 0.68 0.68 0.70 0.70 0.70 0.70 0.72 0.72 0.72 0.72 0.72 0.74 0.72 0.72 0.74 0.74 0.74 0.76 0.76 0.76 0.78 0.78 0.76 0.76 0.76 0.76 0.78 0.78 0.78 0.78 0.80 0.80 0.80 0.78 0.78 0.76 0.76 0.74 0.74 0.74 0.72
0.50 0.52 0.52 0.52 0.52 0.52 0.52 0.52 0.52 0.52 0.52 0.52 0.52 0.52 0.52 0.54 0.54 0.56 0.56 0.58 0.58 0.60 0.60 0.62 0.62 0.64 0.64 0.66 0.68 0.68 0.68 0.68 0.68 0.70 0.70 0.72 0.72 0.72 0.72 0.72 0.72 0.72 0.72 0.72 0.74 0.74 0.74 0.74 0.74 0.74 0.74 0.74 0.74 0.74 0.76 0.76 0.76 0.76 0.76 0.76 0.76 0.74 0.74 0.74 0.72 0.72 0.72 0.72 0.70
0.48 0.48 0.48 0.48 0.50 0.50 0.50 0.50 0.50 0.50 0.50 0.50 0.50 0.50 0.50 0.52 0.52 0.54 0.54 0.56 0.58 0.58 0.60 0.60 0.62 0.64 0.64 0.66 0.66 0.68 0.68 0.68 0.68 0.68 0.68 0.70 0.70 0.70 0.72 0.72 0.72 0.72 0.72 0.72 0.74 0.74 0.74 0.74 0.74 0.72 0.72 0.72 0.72 0.72 0.74 0.74 0.74 0.74 0.74 0.74 0.74 0.72 0.70 0.70 0.70 0.70 0.70 0.70 0.68
0.46 0.46 0.46 0.46 0.46 0.46 0.46 0.48 0.48 0.48 0.48 0.48 0.48 0.48 0.48 0.50 0.50 0.50 0.52 0.54 0.54 0.56 0.58 0.60 0.60 0.62 0.64 0.64 0.64 0.66 0.66 0.68 0.68 0.68 0.68 0.68 0.68 0.70 0.70 0.70 0.72 0.72 0.72 0.74 0.74 0.74 0.74 0.74 0.74 0.74 0.74 0.72 0.72 0.72 0.72 0.72 0.72 0.72 0.72 0.72 0.70 0.70 0.68 0.66 0.66 0.66 0.68 0.68 0.68
0.42 0.42 0.42 0.42 0.44 0.44 0.44 0.44 0.46 0.48 0.48 0.48 0.48 0.48 0.48 0.48 0.48 0.48 0.50 0.50 0.52 0.54 0.56 0.58 0.60 0.60 0.62 0.62 0.62 0.64 0.64 0.66 0.68 0.68 0.68 0.68 0.68 0.68 0.68 0.68 0.70 0.70 0.72 0.74 0.74 0.74 0.74 0.74 0.74 0.74 0.74 0.72 0.72 0.70 0.70 0.70 0.70 0.70 0.70 0.70 0.68 0.68 0.68 0.66 0.66 0.66 0.66 0.66 0.68
0.40 0.40 0.40 0.40 0.40 0.40 0.42 0.42 0.44 0.44 0.46 0.48 0.48 0.48 0.48 0.48 0.48 0.48 0.48 0.48 0.50 0.52 0.54 0.56 0.58 0.58 0.58 0.60 0.60 0.62 0.64 0.66 0.66 0.68 0.68 0.68 0.68 0.66 0.66 0.68 0.68 0.70 0.70 0.72 0.74 0.74 0.74 0.76 0.76 0.76 0.74 0.74 0.74 0.72 0.70 0.70 0.70 0.70 0.70 0.70 0.68 0.68 0.66 0.66 0.66 0.66 0.66 0.66 0.66
0.40 0.40 0.40 0.40 0.38 0.38 0.40 0.40 0.42 0.42 0.44 0.44 0.46 0.48 0.48 0.48 0.48 0.48 0.48 0.48 0.48 0.50 0.50 0.54 0.54 0.56 0.56 0.56 0.58 0.60 0.62 0.64 0.66 0.66 0.66 0.66 0.66 0.66 0.66 0.68 0.68 0.70 0.70 0.72 0.74 0.74 0.76 0.76 0.76 0.76 0.76 0.74 0.74 0.74 0.72 0.70 0.70 0.70 0.70 0.68 0.68 0.68 0.66 0.66 0.66 0.66 0.66 0.66 0.66
0.34 0.36 0.38 0.36 0.36 0.36 0.38 0.38 0.40 0.40 0.42 0.42 0.44 0.46 0.46 0.48 0.48 0.48 0.48 0.48 0.48 0.50 0.50 0.52 0.52 0.52 0.54 0.56 0.58 0.58 0.60 0.62 0.64 0.66 0.66 0.66 0.66 0.66 0.66 0.68 0.68 0.70 0.70 0.72 0.72 0.74 0.74 0.76 0.76 0.76 0.76 0.76 0.76 0.74 0.74 0.72 0.70 0.70 0.70 0.68 0.68 0.68 0.68 0.66 0.66 0.66 0.66 0.66 0.66
0.31 0.32 0.32 0.31 0.34 0.34 0.34 0.34 0.36 0.38 0.38 0.40 0.40 0.42 0.44 0.44 0.46 0.48 0.48 0.50 0.52 0.52 0.52 0.52 0.52 0.52 0.54 0.56 0.56 0.58 0.60 0.60 0.62 0.64 0.64 0.64 0.64 0.66 0.66 0.68 0.68 0.70 0.70 0.72 0.72 0.72 0.74 0.76 0.76 0.78 0.78 0.78 0.76 0.76 0.74 0.74 0.72 0.72 0.70 0.70 0.68 0.68 0.68 0.68 0.66 0.66 0.66 0.66 0.66
0.29 0.29 0.29 0.29 0.29 0.29 0.29 0.31 0.34 0.34 0.36 0.36 0.38 0.38 0.38 0.38 0.40 0.42 0.44 0.48 0.52 0.54 0.54 0.54 0.52 0.52 0.52 0.54 0.56 0.58 0.58 0.60 0.62 0.62 0.64 0.64 0.64 0.66 0.66 0.68 0.68 0.70 0.70 0.72 0.72 0.72 0.74 0.76 0.76 0.78 0.78 0.78 0.78 0.76 0.76 0.74 0.74 0.72 0.72 0.72 0.70 0.70 0.68 0.68 0.68 0.68 0.66 0.66 0.66
0.27 0.27 0.27 0.27 0.27 0.27 0.29 0.29 0.29 0.31 0.31 0.31 0.31 0.32 0.32 0.34 0.36 0.38 0.40 0.44 0.48 0.52 0.54 0.54 0.54 0.54 0.54 0.54 0.54 0.56 0.58 0.60 0.62 0.62 0.64 0.64 0.66 0.66 0.66 0.66 0.68 0.70 0.70 0.72 0.72 0.72 0.74 0.74 0.76 0.78 0.78 0.78 0.78 0.78 0.76 0.76 0.74 0.74 0.74 0.72 0.72 0.70 0.70 0.70 0.68 0.68 0.68 0.68 0.68
0.27 0.27 0.27 0.27 0.27 0.27 0.27 0.27 0.29 0.29 0.29 0.29 0.29 0.31 0.31 0.32 0.32 0.34 0.36 0.38 0.42 0.48 0.54 0.56 0.56 0.56 0.56 0.56 0.56 0.56 0.58 0.58 0.60 0.62 0.64 0.66 0.66 0.66 0.66 0.66 0.68 0.70 0.70 0.72 0.72 0.72 0.74 0.74 0.76 0.76 0.78 0.78 0.78 0.78 0.78 0.76 0.76 0.74 0.74 0.72 0.72 0.72 0.72 0.70 0.70 0.70 0.68 0.68 0.68
0.27 0.27 0.27 0.27 0.27 0.27 0.27 0.27 0.29 0.29 0.29 0.29 0.29 0.29 0.31 0.31 0.31 0.32 0.34 0.34 0.38 0.44 0.50 0.54 0.56 0.58 0.58 0.60 0.60 0.58 0.58 0.58 0.60 0.62 0.64 0.64 0.66 0.66 0.66 0.66 0.68 0.70 0.70 0.72 0.72 0.72 0.74 0.74 0.74 0.76 0.78 0.78 0.78 0.78 0.78 0.76 0.76 0.74 0.74 0.74 0.72 0.72 0.72 0.72 0.72 0.70 0.70 0.70 0.68
0.27 0.27 0.27 0.27 0.27 0.27 0.27 0.29 0.29 0.29 0.29 0.29 0.29 0.31 0.31 0.31 0.31 0.32 0.32 0.34 0.36 0.38 0.42 0.48 0.52 0.54 0.58 0.58 0.60 0.60 0.60 0.60 0.60 0.62 0.64 0.64 0.66 0.66 0.66 0.66 0.68 0.70 0.70 0.72 0.72 0.72 0.74 0.74 0.74 0.76 0.76 0.78 0.78 0.78 0.76 0.76 0.76 0.76 0.74 0.74 0.74 0.72 0.72 0.72 0.72 0.72 0.70 0.70 0.70
0.27 0.27 0.27 0.27 0.27 0.27 0.29 0.29 0.29 0.29 0.29 0.31 0.31 0.31 0.31 0.32 0.32 0.32 0.34 0.34 0.34 0.34 0.36 0.42 0.46 0.50 0.54 0.56 0.58 0.60 0.62 0.62 0.62 0.62 0.64 0.64 0.66 0.66 0.66 0.66 0.68 0.70 0.70 0.72 0.72 0.72 0.74 0.74 0.74 0.76 0.76 0.76 0.76 0.76 0.76 0.76 0.76 0.76 0.74 0.74 0.74 0.74 0.74 0.72 0.72 0.72 0.72 0.72 0.70
0.27 0.27 0.27 0.27 0.27 0.27 0.29 0.29 0.29 0.29 0.31 0.31 0.31 0.32 0.32 0.32 0.34 0.34 0.34 0.36 0.34 0.34 0.34 0.36 0.40 0.44 0.48 0.54 0.58 0.60 0.62 0.64 0.64 0.64 0.64 0.64 0.64 0.66 0.66 0.66 0.68 0.70 0.72 0.72 0.72 0.74 0.74 0.74 0.74 0.76 0.76 0.74 0.74 0.76 0.76 0.76 0.76 0.76 0.74 0.74 0.74 0.74 0.74 0.74 0.72 0.72 0.72 0.72 0.70
0.27 0.27 0.27 0.27 0.27 0.29 0.29 0.29 0.29 0.31 0.31 0.31 0.32 0.32 0.32 0.34 0.34 0.34 0.36 0.36 0.36 0.36 0.36 0.36 0.38 0.40 0.44 0.50 0.54 0.58 0.62 0.64 0.64 0.64 0.64 0.64 0.66 0.66 0.66 0.68 0.70 0.70 0.72 0.72 0.72 0.74 0.74 0.74 0.74 0.74 0.76 0.74 0.74 0.74 0.76 0.76 0.76 0.76 0.74 0.74 0.74 0.74 0.74 0.74 0.74 0.72 0.72 0.72 0.70
0.27 0.27 0.27 0.29 0.29 0.29 0.29 0.29 0.31 0.31 0.31 0.32 0.32 0.32 0.32 0.34 0.34 0.36 0.38 0.38 0.38 0.38 0.38 0.38 0.38 0.40 0.42 0.46 0.50 0.54 0.58 0.62 0.64 0.66 0.66 0.66 0.66 0.66 0.68 0.68 0.70 0.70 0.72 0.72 0.72 0.74 0.74 0.74 0.74 0.74 0.74 0.74 0.74 0.74 0.74 0.76 0.74 0.74 0.74 0.74 0.74 0.74 0.74 0.74 0.74 0.72 0.72 0.72 0.72
0.27 0.27 0.27 0.29 0.29 0.29 0.29 0.29 0.31 0.31 0.32 0.32 0.32 0.34 0.34 0.36 0.36 0.38 0.38 0.40 0.40 0.40 0.40 0.40 0.40 0.40 0.42 0.44 0.46 0.50 0.54 0.58 0.62 0.66 0.66 0.68 0.68 0.68 0.68 0.68 0.68 0.70 0.72 0.72 0.74 0.74 0.74 0.74 0.74 0.74 0.74 0.74 0.74 0.74 0.74 0.74 0.74 0.74 0.74 0.74 0.74 0.74 0.74 0.72 0.72 0.72 0.72 0.72 0.72
Wind_Speed
18 19 19 20 20 21 22 23 23 24 24 25 25 26 26 26 26 25 25 24 24 23 23 23 22 22 22 22 22 22 22 22 22 22 22 24 25 26 28 29 29 30 30 31 32 32 31 30 29 29 29 28 28 28 29 29 30 30 30 29 27 27 28 29 29 29 29 28 28
19 20 20 21 21 22 23 23 24 25 25 26 26 27 28 28 28 28 28 27 27 26 26 25 25 25 25 25 25 25 25 24 24 24 24 24 24 25 25 26 27 27 28 28 28 28 28 28 28 28 28 27 27 28 29 30 30 30 30 29 28 27 27 28 29 29 29 29 29
20 21 21 22 22 23 23 24 24 25 26 26 27 27 28 29 29 29 29 29 29 29 29 29 29 29 29 29 29 29 29 28 28 27 27 27 27 27 27 26 26 26 26 26 27 27 27 27 27 28 28 28 28 29 29 30 31 31 30 29 28 28 28 28 29 29 29 30 30
21 21 22 22 23 23 24 24 25 25 26 26 27 27 28 28 28 28 29 29 30 30 31 31 31 32 32 32 32 32 32 31 31 30 30 30 29 29 28 27 27 26 26 26 27 27 27 28 28 28 29 30 30 30 30 31 31 31 30 29 29 29 29 29 30 30 30 31 31
21 22 22 23 23 23 24 24 25 25 25 26 26 26 26 27 27 27 28 28 29 29 30 31 32 32 33 33 33 33 33 33 32 31 31 30 29 29 28 28 27 27 27 27 27 27 28 28 29 30 31 31 32 32 32 32 31 31 30 30 30 30 30 31 31 31 31 32 32
22 22 23 23 24 24 24 24 25 25 25 25 26 26 26 26 26 27 27 27 28 28 29 29 30 31 31 32 32 32 32 31 31 31 31 30 29 28 28 28 28 28 28 29 29 29 29 29 30 30 32 33 34 34 34 33 32 31 31 31 31 31 31 31 31 32 32 33 33
22 22 23 23 24 24 24 25 25 25 25 26 26 26 27 27 27 27 27 28 28 28 28 28 28 29 29 30 30 30 30 30 30 30 30 29 29 28 28 28 29 29 30 31 31 31 31 31 31 31 32 34 34 35 35 34 33 32 32 32 32 32 32 32 32 32 33 34 34
22 22 23 23 24 24 25 25 25 26 26 26 26 27 28 28 28 29 29 29 29 29 29 29 29 29 29 29 29 29 29 29 29 29 29 29 29 29 29 29 29 30 31 32 33 33 34 33 33 33 33 34 34 35 35 34 34 34 34 33 33 33 33 33 33 34 34 35 35
22 22 23 23 24 24 24 25 25 26 26 27 27 28 28 29 30 30 30 30 30 30 30 30 30 30 30 30 30 30 30 30 30 30 30 30 30 30 30 30 30 31 31 32 33 34 35 35 35 35 35 35 34 34 35 35 35 36 35 35 35 34 34 35 35 35 36 36 36
22 23 23 24 24 24 25 25 26 26 27 28 28 29 29 30 30 31 31 31 32 32 32 32 32 31 31 31 31 31 31 31 31 31 31 31 31 31 31 31 31 32 32 32 33 34 34 35 35 36 36 36 36 35 36 36 37 37 37 37 36 36 37 37 37 37 38 38 38
23 23 24 24 25 25 26 26 27 27 28 28 29 29 30 30 31 31 32 32 32 33 33 33 33 33 33 33 33 33 33 33 33 33 33 33 33 33 33 33 33 33 33 33 34 34 34 35 35 36 37 37 37 37 37 37 38 39 39 39 39 39 39 39 39 39 39 39 38
23 24 25 25 26 26 27 27 28 28 29 29 30 30 30 31 31 32 32 33 33 34 34 34 35 35 35 35 35 35 35 35 35 35 35 35 35 35 35 35 35 35 35 35 35 35 36 36 37 37 38 38 38 38 38 39 39 40 40 41 41 41 41 41 40 40 39 38 37
24 24 25 26 27 27 28 29 29 30 30 31 31 31 31 32 32 32 33 33 34 34 35 35 36 36 36 36 36 36 36 36 37 37 37 37 37 37 37 37 37 37 36 36 36 37 37 38 38 39 39 40 40 40 40 40 41 41 41 41 41 41 41 41 40 39 38 38 37
24 25 25 26 27 28 29 29 30 30 31 32 32 32 33 33 33 33 33 33 34 34 35 35 36 36 37 37 37 37 38 38 38 38 38 38 38 38 38 38 38 38 38 38 38 38 38 38 39 39 40 40 41 41 42 42 42 42 42 42 42 41 41 40 39 38 38 38 37
24 25 25 26 27 28 29 30 30 31 31 32 33 33 33 34 34 34 34 34 34 34 35 35 36 36 37 38 38 38 38 38 38 38 38 38 38 38 38 38 38 38 38 38 38 38 38 39 39 39 40 40 41 41 42 42 43 43 42 42 42 41 40 40 39 38 38 38 38
24 25 26 26 27 28 29 29 30 31 32 32 33 33 34 34 34 35 35 35 35 35 35 35 35 36 37 37 38 38 39 39 39 38 38 38 38 38 38 38 38 38 38 38 38 38 39 39 39 39 39 40 40 41 41 42 42 42 42 42 41 41 40 39 39 38 38 38 38
25 25 26 27 27 28 29 30 30 31 32 33 33 34 34 35 35 35 35 35 35 35 35 35 35 36 36 37 37 38 38 39 39 39 39 38 38 38 37 37 37 37 37 37 38 38 38 38 38 38 39 39 39 40 40 41 41 41 42 41 41 40 40 39 39 39 38 38 37
26 27 27 28 28 29 30 30 31 32 32 33 34 34 34 35 35 36 36 36 36 36 36 36 36 36 36 37 37 38 38 38 38 39 38 38 38 38 37 37 37 37 37 37 37 37 37 38 38 38 38 38 39 39 39 40 40 41 41 41 40 40 40 39 39 39 38 37 36
27 28 28 29 29 30 31 31 32 32 33 34 34 35 35 35 36 36 37 37 37 37 37 37 37 37 37 37 37 38 38 38 38 38 38 38 38 38 38 37 37 37 37 36 36 36 37 37 37 37 38 38 38 38 39 39 39 40 40 40 40 40 39 39 39 38 38 37 36
29 29 30 30 31 31 32 32 33 33 34 34 35 35 36 36 37 37 37 38 38 38 38 38 38 38 38 38 38 38 38 39 38 38 38 38 38 38 38 38 37 37 37 37 37 36 36 37 37 37 37 37 38 38 38 38 38 39 39 39 39 39 39 38 38 38 37 37 36
30 30 31 31 32 32 32 33 33 34 34 35 35 36 36 37 37 37 38 38 38 38 39 39 39 39 38 38 38 39 39 39 39 39 38 38 38 38 38 38 38 38 38 38 37 37 37 37 37 37 37 37 37 37 37 37 37 37 37 37 37 37 37 37 37 37 36 36 36
31 32 32 32 33 33 33 34 34 34 35 35 35 36 36 37 37 38 38 38 39 39 39 39 39 39 39 39 39 39 39 39 39 39 39 39 38 38 38 38 38 38 38 38 38 38 37 37 37 37 37 37 37 37 37 36 37 36 36 36 36 36 36 36 36 36 36 36 35
32 33 33 33 34 34 34 35 35 35 35 36 36 36 37 37 37 38 38 39 39 39 39 40 40 40 40 40 40 40 40 40 40 40 40 39 39 39 39 39 39 39 39 39 39 38 38 38 37 37 37 36 36 36 36 36 36 36 36 36 36 36 35 35 35 35 35 35 34
32 33 33 33 34 34 35 35 35 36 36 36 36 36 37 37 37 38 38 39 39 39 40 40 40 40 40 40 40 40 40 40 40 40 40 40 40 40 39 39 39 39 39 39 39 39 38 38 38 37 37 37 36 36 36 36 36 35 35 35 35 35 35 35 35 34 34 34 33
32 33 33 33 34 34 35 35 35 36 36 36 36 37 37 37 37 38 38 38 39 39 40 40 40 40 40 41 41 41 41 41 41 41 41 41 40 40 40 40 40 40 40 39 39 39 39 38 38 37 37 37 36 36 36 36 36 35 35 35 35 35 34 34 34 34 33 33 32
33 33 33 34 34 34 35 35 35 36 36 36 36 37 37 37 37 37 38 38 39 39 40 40 40 40 41 41 41 41 42 42 42 42 41 41 41 41 41 40 40 40 40 40 40 39 39 39 38 38 37 37 36 36 36 36 36 35 35 35 34 34 34 34 33 33 32 31 31
34 34 34 35 35 35 35 36 36 36 37 37 37 37 37 37 37 38 38 38 39 39 40 40 40 41 41 41 41 42 42 42 42 42 42 42 42 42 41 41 41 41 40 40 40 40 39 39 38 38 37 37 36 36 36 35 35 35 35 35 34 34 34 33 33 32 31 31 30
35 35 36 36 36 37 37 37 37 38 38 38 38 38 38 38 38 39 39 39 39 40 40 40 41 41 41 41 42 42 42 43 42 42 42 42 42 42 42 42 41 41 41 41 40 40 40 39 39 38 37 37 36 36 36 35 35 35 34 34 34 33 33 32 32 31 31 30 30
36 37 37 38 38 38 39 39 39 39 40 40 40 40 40 40 40 40 40 40 40 41 41 41 41 41 42 42 43 43 43 43 43 43 43 43 43 43 43 42 42 42 41 41 41 40 40 40 39 38 38 37 36 36 36 35 35 34 34 34 33 33 32 32 31 31 30 30 30
37 38 38 39 39 40 40 40 41 41 42 42 42 42 42 42 42 42 42 42 42 42 42 42 42 42 43 43 44 44 44 44 44 44 44 44 43 43 43 43 43 42 42 42 41 41 40 40 39 39 38 38 37 36 36 35 35 34 34 33 33 33 32 32 31 31 30 30 29
38 38 39 39 40 41 41 41 42 42 43 43 44 44 44 44 44 44 44 43 43 43 43 43 43 44 44 44 44 45 45 45 45 45 45 44 44 44 44 44 43 43 43 42 42 41 41 40 40 39 39 38 37 37 36 35 35 34 34 33 33 32 32 31 31 31 30 30 30
38 38 39 40 40 41 41 42 42 43 44 44 45 45 45 46 46 46 46 45 45 45 45 44 45 45 45 45 45 46 46 46 46 46 46 45 45 45 45 44 44 44 43 43 42 42 41 41 40 40 39 39 38 37 37 36 35 35 34 34 33 33 32 31 31 31 30 30 30
38 38 39 39 40 40 41 41 42 43 43 44 45 45 46 46 47 47 47 47 46 46 46 46 46 46 46 46 46 47 47 47 47 47 47 46 46 46 45 45 45 44 44 43 43 42 42 41 41 40 40 39 39 38 37 37 36 35 35 34 33 33 32 32 31 31 30 30 30
37 38 38 39 39 40 40 41 41 42 43 43 44 45 45 46 47 47 47 47 47 47 47 47 47 47 47 47 47 48 48 48 48 48 47 47 47 47 46 46 45 45 44 44 44 43 42 42 41 40 40 40 39 38 38 37 36 36 35 35 34 33 33 32 32 31 31 31 30
37 38 38 39 39 40 40 41 41 42 42 43 43 44 45 45 46 47 47 48 48 48 48 48 48 48 48 49 49 49 49 49 49 49 48 48 48 47 47 47 46 46 45 45 44 44 43 42 41 41 40 40 39 39 38 38 37 36 36 35 34 34 33 32 32 32 31 31 30
38 38 39 39 40 40 41 41 42 42 42 43 43 44 44 45 45 46 47 47 48 49 49 50 50 50 50 50 50 50 50 50 50 50 50 49 49 48 48 48 47 46 46 45 45 44 43 43 42 41 40 40 39 39 39 38 37 37 36 36 35 34 33 33 32 32 31 31 31
39 39 40 40 41 41 41 42 42 43 43 43 44 44 44 45 45 46 46 47 48 49 50 50 51 51 51 51 52 52 52 52 52 52 51 51 50 50 49 49 48 47 46 46 45 44 44 43 42 41 41 40 40 39 39 38 37 37 36 36 35 35 34 33 33 32 32 31 31
39 40 40 41 41 42 42 42 43 43 44 44 44 44 45 45 45 46 46 46 47 48 49 50 51 52 52 53 53 53 54 53 53 53 53 52 51 51 50 50 49 48 47 46 45 44 44 43 42 42 41 40 40 39 39 38 38 37 37 36 35 35 34 33 33 32 32 32 31
40 40 41 41 42 42 43 43 43 44 44 44 45 45 45 45 45 46 46 46 47 48 49 50 51 52 53 53 54 54 55 55 55 54 54 53 52 52 51 50 49 48 47 46 45 45 44 43 43 42 41 40 40 39 39 38 38 37 37 36 36 35 34 34 33 33 32 32 32
40 41 41 42 42 43 43 43 44 44 44 44 45 45 45 46 46 46 47 47 47 48 49 50 51 52 53 53 54 55 55 56 56 55 54 54 53 52 51 50 48 47 46 45 45 44 44 43 43 42 41 40 40 39 39 38 38 38 37 37 36 35 35 34 34 33 33 32 32
41 41 42 42 42 43 43 44 44 44 44 45 45 45 46 46 46 47 47 47 48 48 49 50 51 52 52 53 54 54 55 55 55 54 54 53 52 51 49 48 47 46 45 44 44 44 43 43 43 42 41 40 40 39 39 38 38 38 38 37 37 36 35 35 34 34 33 32 32
Wind_Direction
262 262 262 263 264 264 265 266 267 267 267 268 268 268 269 269 269 269 269 269 269 269 269 269 268 268 268 268 270 271 273 275 275 274 270 266 262 260 259 259 259 259 258 256 255 255 254 254 253 252 251 251 252 252 252 253 254 255 255 255 257 258 259 258 258 259 260 262 264
264 264 264 265 266 267 268 269 269 269 269 269 270 270 271 271 271 271 270 270 269 269 270 270 269 269 269 269 270 271 273 274 274 274 272 270 268 266 265 265 264 261 259 258 257 256 254 252 250 250 250 250 250 251 253 254 255 255 255 255 256 257 258 258 259 260 261 263 264
267 267 267 268 268 269 270 271 271 271 271 271 271 272 272 273 273 273 273 272 271 271 271 270 270 270 270 271 271 272 272 273 273 272 272 271 271 270 270 269 268 265 261 257 256 254 252 250 249 249 249 248 248 249 252 255 256 256 255 256 256 257 257 258 258 260 261 262 263
272 271 271 271 271 271 272 272 273 272 272 272 272 273 273 273 274 274 275 274 274 273 273 272 272 271 271 271 272 272 272 272 272 272 272 271 271 270 269 268 267 265 262 259 255 253 252 251 251 251 250 249 248 249 251 254 256 255 255 255 256 256 256 256 256 258 259 260 262
275 274 274 274 274 274 273 274 274 274 274 274 274 273 273 273 274 275 275 276 276 275 275 274 274 273 272 272 272 273 273 273 273 273 272 271 271 270 269 267 265 263 261 259 256 254 254 254 254 253 252 250 250 250 252 253 254 254 253 253 254 255 255 256 256 257 259 260 262
276 276 277 277 277 277 276 276 276 276 276 276 275 275 274 274 275 275 276 276 277 277 277 276 275 275 274 273 273 273 273 273 273 272 271 271 270 269 268 266 263 261 259 257 256 256 256 256 256 255 253 252 251 251 252 253 253 253 252 253 254 255 257 258 259 260 261 262 264
278 278 278 279 279 279 278 278 278 278 278 278 277 277 276 276 276 277 277 277 278 278 278 278 277 276 275 275 274 273 273 273 273 272 271 271 270 269 267 265 262 260 258 256 256 256 257 258 258 256 255 253 252 252 253 253 254 253 253 254 255 257 259 260 261 262 263 264 265
279 279 279 280 280 280 280 280 279 279 279 279 278 278 278 278 278 278 278 278 279 279 279 278 278 277 276 276 275 274 274 273 273 272 271 271 270 270 268 266 263 260 258 257 257 257 258 258 258 257 256 254 254 254 254 254 255 255 255 256 257 259 260 262 263 264 265 265 265
278 278 279 279 280 280 280 280 280 279 279 279 279 279 279 279 279 279 279 279 279 279 279 278 278 277 277 276 275 274 274 274 273 272 272 271 271 270 269 267 265 263 261 260 260 259 258 258 258 258 257 256 256 256 256 256 257 257 257 258 259 261 262 263 265 266 266 266 266
277 277 278 278 279 279 279 279 279 279 279 279 279 279 279 279 279 278 278 278 278 278 278 278 278 277 276 276 275 275 274 274 273 273 272 272 271 271 270 268 267 265 264 263 262 261 260 259 258 258 258 258 258 258 258 259 260 260 261 261 262 263 264 265 266 267 267 267 267
278 278 278 278 278 278 278 279 279 279 279 279 279 279 279 279 278 278 278 277 277 277 277 277 277 277 276 275 275 274 274 273 273 273 272 272 271 271 271 270 269 267 266 264 263 262 261 259 258 258 258 259 259 260 260 261 262 263 264 265 265 266 266 267 267 268 268 268 268
279 279 278 278 278 278 278 278 278 279 279 279 279 280 279 279 279 278 278 277 277 276 276 276 276 276 275 275 275 274 274 273 273 272 272 272 272 271 271 270 270 268 267 265 263 262 261 260 259 258 258 258 259 260 260 261 263 264 265 266 267 268 268 268 268 268 268 269 269
280 280 280 279 279 279 279 279 278 279 279 279 280 280 280 280 280 279 279 278 277 276 276 275 275 275 275 275 274 274 273 273 273 272 272 272 272 271 271 271 270 269 268 266 264 263 261 261 260 260 259 259 259 259 260 261 262 263 263 264 265 266 267 267 268 268 269 270 271
282 282 282 281 281 281 280 280 279 279 279 279 280 280 280 281 281 281 280 280 279 278 277 276 275 274 274 274 274 274 273 273 273 272 272 272 272 271 271 270 270 269 268 267 266 264 263 262 261 261 260 260 260 260 260 260 261 262 263 263 264 265 266 267 268 269 270 272 273
285 284 284 284 283 283 282 281 281 280 280 280 280 280 280 280 281 281 281 281 280 280 279 277 276 275 274 274 273 273 273 273 272 272 272 272 271 271 271 270 270 269 268 268 267 266 264 263 262 262 261 261 261 261 261 261 262 262 263 264 264 265 266 267 269 270 271 272 273
287 286 286 285 285 284 284 283 283 282 281 281 280 280 280 280 280 281 281 281 281 281 280 280 278 277 276 275 274 273 273 272 272 272 272 271 271 271 270 270 269 269 268 268 267 266 266 265 264 263 262 262 261 261 261 262 262 263 264 265 265 266 266 267 268 269 270 271 272
288 288 287 287 287 286 286 285 284 284 283 282 282 281 281 281 281 281 281 281 281 281 281 281 280 279 278 277 275 274 273 272 272 271 271 271 271 271 270 270 269 269 268 267 267 266 266 265 265 264 264 263 262 262 262 262 263 263 264 265 265 266 266 267 267 268 269 270 271
289 289 289 289 288 288 287 287 286 286 285 284 284 283 282 282 282 281 281 281 282 282 282 281 281 280 279 278 277 275 274 273 272 271 271 271 270 270 270 270 269 269 268 268 267 267 266 266 265 265 264 264 264 263 263 263 263 263 264 264 265 265 265 266 266 267 268 269 269
290 290 290 290 289 289 288 288 287 287 286 286 285 285 284 283 283 282 282 282 282 282 282 282 281 281 280 279 277 276 275 274 272 271 271 270 270 270 270 269 269 269 268 268 267 267 266 266 265 265 265 264 264 264 264 263 263 263 263 263 264 264 264 265 265 266 267 267 268
291 290 290 290 290 289 289 288 288 287 287 286 286 285 285 284 283 283 282 282 282 282 282 281 281 280 279 279 277 276 275 274 273 272 271 270 270 270 269 269 269 269 268 268 268 267 267 266 266 265 265 264 264 264 264 264 263 263 263 263 263 263 263 264 264 265 266 266 267
291 290 290 290 290 289 289 288 288 288 287 287 286 286 285 284 283 283 282 281 281 281 281 280 280 279 279 278 277 275 274 274 273 272 271 271 270 270 269 269 269 269 269 268 268 268 267 267 266 265 265 264 264 263 263 263 263 263 263 263 263 263 263 263 264 264 265 266 267
291 291 290 290 290 289 289 289 288 288 287 287 286 286 285 285 284 283 282 281 281 280 280 279 279 278 278 277 276 274 273 273 272 272 271 271 270 270 270 269 269 269 268 268 268 268 267 267 266 265 265 264 264 263 263 262 262 262 262 262 262 262 263 263 264 264 265 266 267
291 291 290 290 290 290 290 289 289 289 288 288 287 287 286 285 284 283 282 281 281 280 279 278 278 277 276 276 275 273 272 272 271 271 271 271 271 270 270 269 269 268 268 268 268 267 267 267 266 266 265 264 264 263 262 262 262 261 261 261 262 262 262 263 264 264 265 266 266
291 291 290 290 290 290 290 290 290 290 289 289 288 288 287 286 285 285 283 282 281 280 279 278 277 277 276 275 274 272 271 270 270 270 270 270 270 270 270 270 269 269 268 268 267 267 267 266 266 266 265 265 264 263 262 262 261 261 261 261 261 262 262 263 263 264 264 264 264
291 291 291 291 291 291 291 291 291 291 290 290 290 289 288 288 287 286 285 284 282 281 280 279 278 277 276 274 273 272 271 270 269 269 269 269 269 269 270 270 269 269 269 268 267 266 266 266 265 265 265 264 264 263 262 261 261 260 260 260 261 261 262 262 263 263 263 263 262
291 291 291 291 291 292 292 291 291 291 291 291 290 290 289 289 288 287 286 285 284 283 281 280 278 277 276 275 273 272 271 270 269 269 268 268 268 268 269 269 269 269 269 268 267 266 265 265 264 264 264 264 263 262 262 261 261 260 260 260 260 261 261 262 262 262 262 262 261
292 292 292 292 292 292 291 291 291 291 291 291 290 290 289 289 288 287 286 285 285 284 282 281 279 278 276 275 274 273 271 270 269 269 268 268 268 268 268 268 268 268 268 268 267 266 265 264 264 263 263 263 262 262 261 261 260 260 260 260 260 260 261 261 261 261 261 261 260
292 292 292 292 291 291 291 291 291 290 290 290 290 289 289 288 288 287 286 285 285 284 283 281 280 278 277 276 274 273 272 271 270 269 268 268 267 267 267 267 267 268 267 267 266 265 264 264 263 263 262 262 262 261 261 260 260 260 260 260 260 260 260 260 260 260 260 260 259
291 291 291 291 291 290 290 290 290 290 289 289 289 288 288 288 287 286 286 285 284 283 283 282 280 279 277 276 274 273 272 271 270 270 269 268 268 267 267 267 267 267 266 266 265 264 264 263 262 262 261 261 261 261 261 260 260 260 259 259 259 259 259 259 259 259 259 259 258
291 291 290 290 290 290 290 289 289 289 288 288 287 287 287 286 286 285 285 284 283 283 282 281 280 279 277 276 275 273 272 271 270 270 269 268 268 267 267 267 266 266 266 265 264 263 263 262 262 261 260 260 260 260 260 260 259 259 259 259 259 258 258 258 258 258 257 257 257
290 290 290 289 289 289 289 288 288 288 287 287 286 286 285 285 284 284 283 282 282 281 281 280 280 279 277 276 275 273 272 271 270 269 269 268 268 267 267 266 266 266 265 264 263 263 262 261 261 260 260 259 259 260 260 259 259 259 259 258 258 258 257 257 257 256 256 256 256
290 290 289 289 289 288 288 288 288 287 287 286 286 285 284 283 283 282 282 281 280 280 279 279 278 278 277 276 275 273 272 271 270 269 268 267 267 267 266 266 266 265 264 263 262 262 261 260 260 259 259 259 259 259 259 259 258 258 258 258 257 257 257 256 256 255 255 255 255
290 290 290 289 289 289 289 288 288 288 287 287 286 285 284 283 283 282 281 280 280 279 278 278 277 277 276 276 275 273 272 271 269 268 268 267 266 266 266 265 265 265 264 263 262 261 260 259 259 258 258 258 258 258 258 258 258 258 257 257 257 256 255 255 254 254 254 254 254
291 291 291 291 291 290 290 290 290 289 289 288 287 286 285 284 283 282 281 281 280 279 278 277 277 277 276 276 275 274 273 271 270 269 267 266 266 265 265 265 264 264 263 262 261 260 259 258 258 257 257 257 257 257 257 257 257 256 256 256 255 255 254 253 253 253 252 252 252
293 293 293 293 293 292 292 292 292 291 291 290 289 288 287 286 285 284 283 281 280 279 278 278 277 277 276 276 275 275 274 272 271 269 268 267 266 265 264 264 263 263 262 261 260 259 258 258 257 256 256 256 256 256 255 255 255 255 255 254 254 253 252 252 251 251 251 251 251
295 295 295 295 294 294 294 294 293 293 292 292 291 290 289 288 287 286 284 283 282 280 279 278 277 277 276 276 275 275 274 273 272 270 269 267 266 265 264 263 263 262 261 260 259 259 258 257 256 255 255 255 255 254 254 254 254 253 253 252 252 251 251 250 250 250 249 249 250
296 296 296 296 295 295 295 295 294 294 293 293 292 291 291 290 289 288 286 285 283 281 280 279 278 277 276 276 275 275 274 273 272 271 270 268 267 265 264 263 262 261 260 259 258 257 257 256 255 254 254 254 253 253 252 252 252 252 251 251 250 249 249 249 248 248 248 248 248
297 297 296 296 296 295 295 295 294 294 293 293 292 292 291 291 290 289 288 287 285 283 282 280 279 278 277 277 276 275 274 273 272 271 270 268 267 266 264 263 262 261 259 258 257 256 255 254 254 253 252 252 252 252 251 250 250 250 249 249 248 248 247 247 247 247 247 247 247
297 297 297 296 296 296 295 295 294 294 293 293 293 292 292 291 290 290 289 288 287 285 284 282 281 280 279 278 277 276 275 274 272 271 270 268 267 265 264 263 261 260 259 257 256 255 254 253 252 251 251 251 251 250 250 249 248 248 247 247 247 246 246 245 245 245 245 245 245
297 297 297 296 296 295 295 295 294 294 294 293 293 293 292 291 291 290 290 289 288 287 285 284 283 281 280 279 278 277 276 275 273 272 270 268 266 264 263 262 260 259 258 256 254 253 252 251 250 250 249 249 249 249 248 247 246 246 245 245 245 244 244 244 244 244 244 244 244
298 297 297 296 296 296 295 295 295 294 294 294 293 293 293 292 291 291 290 290 289 288 287 285 284 283 282 281 280 279 277 276 274 272 269 267 265 263 261 260 259 257 256 254 253 251 250 249 249 248 247 248 247 247 247 246 245 244 244 244 243 243 243 242 242 243 243 243 243